Date String (YYYY-MM-DD hh:mm:ss) UTC,Instrument flags,Ambient pressure (hPa),Sample flow (lpm),Bypass flow (lpm),Sample temperature (°C),Ambient temperature (°C),ASC tube jacket temperature (°C),LED temperature (°C),Box temperature (°C),Sample RH (%),Span deviation,Mass concentration (μg/m³),Mass concentration (μg/m³),Mass concentration (μg/m³)
DateTimeUTC,F1_M11,P_M11,Q1_M11,Q2_M11,T1_M11,T2_M11,T3_M11,T4_M11,T5_M11,U1_M11,ZSPAN_M11,X0_M11,X2_M11,X1_M11
2021-12-26 10:00:00,,0812.8,5.01,0.00,22.5,21.8,00.0,31.5,24.2,07.9,0000.0,0001.16,0000.86,0000.73
2021-12-26 10:01:00,,0812.8,5.00,0.00,22.5,21.8,00.0,31.5,24.2,07.9,0000.0,0001.20,0000.87,0000.73
2021-12-26 10:02:00,,0812.7,5.00,0.00,22.5,21.7,00.0,31.5,24.2,08.0,0000.0,0001.16,0000.85,0000.72
2021-12-26 10:03:00,,0812.6,5.01,0.00,22.5,21.7,00.0,31.5,24.2,08.0,0000.0,0001.18,0000.85,0000.71
2021-12-26 10:04:00,,0812.5,4.99,0.00,22.5,21.7,00.0,31.5,24.2,07.8,0000.0,0001.20,0000.85,0000.71
2021-12-26 10:05:00,,0812.4,5.00,0.00,22.5,21.7,00.0,31.5,24.2,07.8,0000.0,0001.13,0000.82,0000.70
2021-12-26 10:06:00,,0812.4,5.01,0.00,22.5,21.7,00.0,31.5,24.2,07.8,0000.0,0001.22,0000.84,0000.70
2021-12-26 10:07:00,,0812.4,4.99,0.00,22.5,21.7,00.0,31.5,24.2,07.8,0000.0,0001.30,0000.86,0000.71
2021-12-26 10:08:00,,0812.4,5.01,0.00,22.5,21.7,00.0,31.5,24.2,07.8,0000.0,0001.42,0000.90,0000.73
2021-12-26 10:09:00,,0812.5,5.00,0.00,22.5,21.7,00.0,31.5,24.2,07.8,0000.0,0001.41,0000.90,0000.73
2021-12-26 10:10:00,,0812.5,4.99,0.00,22.5,21.7,00.0,31.5,24.2,07.8,0000.0,0001.37,0000.89,0000.72
2021-12-26 10:11:00,,0812.5,5.01,0.00,22.5,21.7,00.0,31.5,24.1,07.8,0000.0,0001.34,0000.87,0000.71
2021-12-26 10:12:00,,0812.5,4.99,0.00,22.5,21.7,00.0,31.5,24.1,07.8,0000.0,0001.31,0000.85,0000.70
2021-12-26 10:13:00,,0812.4,5.02,0.00,22.4,21.7,00.0,31.5,24.1,07.7,0000.0,0001.31,0000.85,0000.70
2021-12-26 10:14:00,,0812.2,4.99,0.00,22.5,22.0,00.0,31.5,24.2,07.6,0000.0,0001.28,0000.84,0000.69
2021-12-26 10:15:00,,0812.1,5.01,0.00,22.6,22.8,00.0,31.5,24.5,07.6,0000.0,0001.26,0000.82,0000.68
2021-12-26 10:16:00,,0812.2,4.98,0.00,22.7,23.2,00.0,31.6,24.7,07.5,0000.0,0001.28,0000.83,0000.69
2021-12-26 10:17:00,,0812.2,5.00,0.00,22.8,23.1,00.0,31.6,24.6,07.5,0000.0,0001.26,0000.82,0000.69
2021-12-26 10:18:00,,0812.1,5.01,0.00,22.8,22.9,00.0,31.6,24.6,07.5,0000.0,0001.24,0000.82,0000.68
2021-12-26 10:19:00,,0812.2,5.00,0.00,22.8,22.7,00.0,31.6,24.5,07.5,0000.0,0001.07,0000.77,0000.67
2021-12-26 10:20:00,,0812.1,5.00,0.00,22.7,22.5,00.0,31.6,24.4,07.4,0000.0,0001.05,0000.77,0000.67
2021-12-26 10:21:00,,0812.1,5.01,0.00,22.7,22.4,00.0,31.6,24.4,07.4,0000.0,0001.05,0000.77,0000.68
2021-12-26 10:22:00,,0812.1,5.00,0.00,22.7,22.3,00.0,31.6,24.4,07.4,0000.0,0001.17,0000.79,0000.68
2021-12-26 10:23:00,,0812.1,4.99,0.00,22.7,22.2,00.0,31.6,24.4,07.4,0000.0,0001.23,0000.80,0000.69
2021-12-26 10:24:00,,0812.1,5.01,0.00,22.7,22.1,00.0,31.6,24.3,07.5,0000.0,0001.26,0000.82,0000.70
2021-12-26 10:25:00,,0811.9,5.01,0.00,22.6,22.0,00.0,31.6,24.3,07.7,0000.0,0001.34,0000.86,0000.71
2021-12-26 10:26:00,,0811.8,4.99,0.00,22.6,22.0,00.0,31.6,24.3,07.9,0000.0,0001.37,0000.89,0000.74
2021-12-26 10:27:00,,0811.8,5.01,0.00,22.6,21.9,00.0,31.6,24.3,08.2,0000.0,0001.39,0000.90,0000.75
2021-12-26 10:28:00,,0811.8,5.00,0.00,22.6,21.9,00.0,31.6,24.2,08.4,0000.0,0001.46,0000.95,0000.78
2021-12-26 10:29:00,,0811.8,5.00,0.00,22.6,21.9,00.0,31.6,24.2,08.4,0000.0,0001.47,0000.98,0000.81
2021-12-26 10:30:00,,0811.7,5.01,0.00,22.6,21.8,00.0,31.6,24.2,08.3,0000.0,0001.50,0001.00,0000.83
2021-12-26 10:31:00,,0811.7,4.99,0.00,22.5,21.8,00.0,31.6,24.2,08.1,0000.0,0001.50,0001.01,0000.85
2021-12-26 10:32:00,,0811.7,5.01,0.00,22.5,21.8,00.0,31.6,24.1,08.2,0000.0,0002.21,0001.03,0000.87
2021-12-26 10:33:00,,0811.7,5.00,0.00,22.5,21.7,00.0,31.6,24.1,08.3,0000.0,0002.43,0001.05,0000.89
2021-12-26 10:34:00,,0811.8,4.99,0.00,22.5,21.7,00.0,31.5,24.1,08.1,0000.0,0002.42,0001.08,0000.91
2021-12-26 10:35:00,,0811.8,5.00,0.00,22.5,21.7,00.0,31.5,24.1,07.8,0000.0,0002.46,0001.08,0000.92
2021-12-26 10:36:00,,0811.7,5.00,0.00,22.4,21.6,00.0,31.5,24.1,08.0,0000.0,0002.53,0001.07,0000.93
2021-12-26 10:37:00,,0811.8,4.99,0.00,22.4,21.6,00.0,31.5,24.0,07.8,0000.0,0002.53,0001.07,0000.93
2021-12-26 10:38:00,,0811.9,5.01,0.00,22.3,21.5,00.0,31.5,23.9,07.9,0000.0,0002.51,0001.06,0000.93
2021-12-26 10:39:00,,0811.9,4.98,0.00,22.3,21.5,00.0,31.5,23.8,07.8,0000.0,0002.45,0001.03,0000.91
2021-12-26 10:40:00,,0811.8,5.01,0.00,22.3,21.8,00.0,31.5,24.0,07.8,0000.0,0002.40,0001.01,0000.89
2021-12-26 10:41:00,,0811.7,4.99,0.00,22.4,22.6,00.0,31.5,24.2,07.9,0000.0,0002.41,0001.00,0000.87
2021-12-26 10:42:00,,0811.6,5.00,0.00,22.6,23.1,00.0,31.5,24.5,07.9,0000.0,0002.42,0000.99,0000.86
2021-12-26 10:43:00,,0811.6,5.00,0.00,22.6,23.0,00.0,31.5,24.5,08.0,0000.0,0002.00,0000.97,0000.84
2021-12-26 10:44:00,,0811.5,5.01,0.00,22.7,22.8,00.0,31.5,24.5,08.0,0000.0,0001.45,0000.96,0000.83
2021-12-26 10:45:00,,0811.5,5.00,0.00,22.7,22.7,00.0,31.5,24.5,08.0,0000.0,0001.40,0000.93,0000.81
2021-12-26 10:46:00,,0811.5,4.99,0.00,22.7,22.5,00.0,31.6,24.4,08.1,0000.0,0001.47,0000.96,0000.81
2021-12-26 10:47:00,,0811.6,5.00,0.00,22.7,22.4,00.0,31.6,24.4,08.0,0000.0,0001.38,0000.97,0000.80
2021-12-26 10:48:00,,0811.6,4.98,0.00,22.7,22.3,00.0,31.6,24.5,08.0,0000.0,0001.40,0000.99,0000.82
2021-12-26 10:49:00,,0811.5,5.01,0.00,22.7,22.2,00.0,31.6,24.4,08.0,0000.0,0001.40,0000.99,0000.82
2021-12-26 10:50:00,,0811.6,4.99,0.00,22.7,22.2,00.0,31.6,24.4,08.0,0000.0,0001.39,0000.99,0000.83
2021-12-26 10:51:00,,0811.5,5.01,0.00,22.7,22.1,00.0,31.6,24.4,08.0,0000.0,0001.41,0001.01,0000.83
2021-12-26 10:52:00,,0811.6,4.98,0.00,22.7,22.1,00.0,31.6,24.4,08.0,0000.0,0001.43,0001.03,0000.85
2021-12-26 10:53:00,,0811.6,5.02,0.00,22.7,22.0,00.0,31.6,24.4,07.9,0000.0,0001.45,0001.05,0000.86
2021-12-26 10:54:00,,0811.5,5.00,0.00,22.7,22.0,00.0,31.6,24.4,07.9,0000.0,0001.46,0001.05,0000.87
2021-12-26 10:55:00,,0811.5,4.99,0.00,22.7,22.0,00.0,31.6,24.4,07.9,0000.0,0001.43,0001.05,0000.88
2021-12-26 10:56:00,,0811.5,5.00,0.00,22.7,22.0,00.0,31.6,24.4,07.9,0000.0,0001.44,0001.06,0000.88
2021-12-26 10:57:00,,0811.6,5.00,0.00,22.6,21.9,00.0,31.6,24.4,08.0,0000.0,0001.39,0001.03,0000.89
2021-12-26 10:58:00,,0811.6,4.99,0.00,22.6,21.9,00.0,31.6,24.4,08.0,0000.0,0001.45,0001.04,0000.90
2021-12-26 10:59:00,,0811.6,5.01,0.00,22.6,21.9,00.0,31.6,24.4,08.0,0000.0,0001.44,0001.03,0000.89
